Time,TemperatureF,DewpointF,PressureIn,WindDirection,WindDirectionDegrees,WindSpeedMPH,WindSpeedGustMPH,Humidity,HourlyPrecipIn,Conditions,Clouds,dailyrainin,SoftwareType,DateUTC
2013-05-09 00:03:00,59.0,52.0,29.99,NNW,345,0.0,-999.0,77,-99.99,,,-99.99,,2013-05-09 04:03:00,
2013-05-09 00:12:00,59.0,52.0,29.99,NNW,345,0.0,-999.0,77,-99.99,,,-99.99,,2013-05-09 04:12:00,
2013-05-09 00:23:00,58.0,52.0,29.98,NNW,345,0.0,-999.0,79,-99.99,,,-99.99,,2013-05-09 04:23:00,
2013-05-09 00:33:00,58.0,52.0,29.98,NNW,345,0.0,-999.0,81,-99.99,,,-99.99,,2013-05-09 04:33:00,
2013-05-09 00:43:00,58.0,52.0,29.98,NNW,345,0.0,-999.0,81,-99.99,,,-99.99,,2013-05-09 04:43:00,
2013-05-09 00:53:00,58.0,52.0,29.98,NNW,345,0.0,-999.0,81,-99.99,,,-99.99,,2013-05-09 04:53:00,
2013-05-09 01:02:00,57.0,52.0,29.98,NNW,345,0.0,-999.0,82,-99.99,,,-99.99,,2013-05-09 05:02:00,
2013-05-09 01:12:00,57.0,52.0,29.98,NNW,345,0.0,-999.0,82,-99.99,,,-99.99,,2013-05-09 05:12:00,
2013-05-09 01:22:00,57.0,52.0,29.98,NNW,345,0.0,-999.0,84,-99.99,,,-99.99,,2013-05-09 05:22:00,
2013-05-09 01:32:00,56.0,52.0,29.98,NNW,345,0.0,-999.0,85,-99.99,,,-99.99,,2013-05-09 05:32:00,
2013-05-09 01:42:00,56.0,52.0,29.98,NNW,345,0.0,-999.0,86,-99.99,,,-99.99,,2013-05-09 05:42:00,
2013-05-09 01:51:00,56.0,52.0,29.98,NNW,345,0.0,-999.0,86,-99.99,,,-99.99,,2013-05-09 05:51:00,
2013-05-09 02:02:00,56.0,52.0,29.98,NNW,345,0.0,-999.0,86,-99.99,,,-99.99,,2013-05-09 06:02:00,
2013-05-09 02:12:00,56.0,52.0,29.98,NNW,345,0.0,-999.0,86,-99.99,,,-99.99,,2013-05-09 06:12:00,
2013-05-09 02:21:00,55.0,51.0,29.98,NNW,345,0.0,-999.0,86,-99.99,,,-99.99,,2013-05-09 06:21:00,
2013-05-09 02:32:00,55.0,51.0,29.98,NNW,345,0.0,-999.0,86,-99.99,,,-99.99,,2013-05-09 06:32:00,
2013-05-09 02:42:00,55.0,51.0,29.98,NNW,345,0.0,-999.0,86,-99.99,,,-99.99,,2013-05-09 06:42:00,
2013-05-09 02:52:00,55.0,51.0,29.98,NNW,345,0.0,-999.0,86,-99.99,,,-99.99,,2013-05-09 06:52:00,
2013-05-09 03:01:00,54.0,50.0,29.97,NNW,345,0.0,-999.0,87,-99.99,,,-99.99,,2013-05-09 07:01:00,
2013-05-09 03:12:00,54.0,50.0,29.97,NNW,345,0.0,-999.0,87,-99.99,,,-99.99,,2013-05-09 07:12:00,
2013-05-09 03:21:00,54.0,50.0,29.97,NNW,345,0.0,-999.0,87,-99.99,,,-99.99,,2013-05-09 07:21:00,
2013-05-09 03:32:00,54.0,50.0,29.97,NNW,345,0.0,-999.0,87,-99.99,,,-99.99,,2013-05-09 07:32:00,
2013-05-09 03:42:00,54.0,50.0,29.97,NNW,345,0.0,-999.0,87,-99.99,,,-99.99,,2013-05-09 07:42:00,
2013-05-09 03:52:00,53.0,49.0,29.96,NNW,345,0.0,-999.0,86,-99.99,,,-99.99,,2013-05-09 07:52:00,
2013-05-09 04:02:00,53.0,49.0,29.96,NNW,345,0.0,-999.0,86,-99.99,,,-99.99,,2013-05-09 08:02:00,
2013-05-09 04:11:00,53.0,49.0,29.96,NNW,345,0.0,-999.0,86,-99.99,,,-99.99,,2013-05-09 08:11:00,
2013-05-09 04:21:00,53.0,49.0,29.96,NNW,345,0.0,-999.0,87,-99.99,,,-99.99,,2013-05-09 08:21:00,
2013-05-09 04:32:00,52.0,48.0,29.96,NNW,345,0.0,-999.0,87,-99.99,,,-99.99,,2013-05-09 08:32:00,
2013-05-09 04:42:00,52.0,48.0,29.97,NNW,345,0.0,-999.0,87,-99.99,,,-99.99,,2013-05-09 08:42:00,
2013-05-09 04:51:00,52.0,48.0,29.97,NNW,345,0.0,-999.0,87,-99.99,,,-99.99,,2013-05-09 08:51:00,
2013-05-09 05:02:00,52.0,49.0,29.98,NNW,345,0.0,-999.0,88,-99.99,,,-99.99,,2013-05-09 09:02:00,
2013-05-09 05:12:00,52.0,49.0,29.98,NNW,345,0.0,-999.0,88,-99.99,,,-99.99,,2013-05-09 09:12:00,
2013-05-09 05:21:00,51.0,47.0,29.97,NNW,345,0.0,-999.0,87,-99.99,,,-99.99,,2013-05-09 09:21:00,
2013-05-09 05:32:00,51.0,47.0,29.98,NNW,345,0.0,-999.0,86,-99.99,,,-99.99,,2013-05-09 09:32:00,
2013-05-09 05:43:00,51.0,46.0,29.98,WSW,257,0.0,-999.0,83,-99.99,,,-99.99,,2013-05-09 09:43:00,
2013-05-09 05:52:00,51.0,46.0,29.98,WSW,257,0.0,-999.0,83,-99.99,,,-99.99,,2013-05-09 09:52:00,
2013-05-09 06:02:00,51.0,46.0,29.98,WSW,257,0.0,-999.0,84,-99.99,,,-99.99,,2013-05-09 10:02:00,
2013-05-09 06:12:00,50.0,46.0,29.98,WSW,257,0.0,-999.0,86,-99.99,,,-99.99,,2013-05-09 10:12:00,
2013-05-09 06:22:00,50.0,46.0,29.98,WSW,257,0.0,-999.0,86,-99.99,,,-99.99,,2013-05-09 10:22:00,
2013-05-09 06:33:00,50.0,46.0,29.98,WSW,257,0.0,-999.0,86,-99.99,,,-99.99,,2013-05-09 10:33:00,
2013-05-09 06:42:00,50.0,46.0,29.98,WSW,257,0.0,-999.0,86,-99.99,,,-99.99,,2013-05-09 10:42:00,
2013-05-09 06:52:00,49.0,45.0,29.98,WSW,257,0.0,-999.0,87,-99.99,,,-99.99,,2013-05-09 10:52:00,
2013-05-09 07:02:00,49.0,46.0,29.98,WSW,257,0.0,-999.0,88,-99.99,,,-99.99,,2013-05-09 11:02:00,
2013-05-09 07:12:00,49.0,46.0,29.98,WSW,257,0.0,-999.0,89,-99.99,,,-99.99,,2013-05-09 11:12:00,
2013-05-09 07:22:00,49.0,46.0,29.98,WSW,257,0.0,-999.0,89,-99.99,,,-99.99,,2013-05-09 11:22:00,
2013-05-09 07:32:00,50.0,47.0,29.99,WSW,257,0.0,-999.0,89,-99.99,,,-99.99,,2013-05-09 11:32:00,
2013-05-09 07:42:00,50.0,47.0,29.99,WSW,257,0.0,-999.0,89,-99.99,,,-99.99,,2013-05-09 11:42:00,
2013-05-09 07:51:00,51.0,48.0,30.00,WSW,257,0.0,-999.0,89,-99.99,,,-99.99,,2013-05-09 11:51:00,
2013-05-09 08:01:00,53.0,49.0,30.00,WSW,257,0.0,-999.0,86,-99.99,,,-99.99,,2013-05-09 12:01:00,
2013-05-09 08:11:00,55.0,48.0,30.00,WSW,257,0.0,-999.0,78,-99.99,,,-99.99,,2013-05-09 12:11:00,
2013-05-09 08:22:00,55.0,48.0,30.00,WSW,257,0.0,-999.0,78,-99.99,,,-99.99,,2013-05-09 12:22:00,
2013-05-09 08:32:00,55.0,47.0,30.00,WSW,257,0.0,-999.0,75,-99.99,,,-99.99,,2013-05-09 12:32:00,
2013-05-09 08:42:00,57.0,49.0,30.00,WSW,257,0.0,-999.0,74,-99.99,,,-99.99,,2013-05-09 12:42:00,
2013-05-09 08:52:00,57.0,49.0,30.00,WSW,257,0.0,-999.0,74,-99.99,,,-99.99,,2013-05-09 12:52:00,
2013-05-09 09:01:00,58.0,49.0,30.00,WSW,257,0.0,-999.0,71,-99.99,,,-99.99,,2013-05-09 13:01:00,
2013-05-09 09:12:00,58.0,49.0,30.00,WSW,257,0.0,-999.0,71,-99.99,,,-99.99,,2013-05-09 13:12:00,
2013-05-09 09:22:00,59.0,48.0,30.00,WSW,257,0.0,-999.0,68,-99.99,,,-99.99,,2013-05-09 13:22:00,
2013-05-09 09:32:00,61.0,48.0,30.00,WSW,257,0.0,-999.0,62,-99.99,,,-99.99,,2013-05-09 13:32:00,
2013-05-09 09:42:00,61.0,48.0,30.00,WSW,257,0.0,-999.0,62,-99.99,,,-99.99,,2013-05-09 13:42:00,
2013-05-09 09:52:00,63.0,48.0,30.00,WSW,257,0.0,-999.0,57,-99.99,,,-99.99,,2013-05-09 13:52:00,
2013-05-09 10:02:00,66.0,49.0,30.00,WSW,257,0.0,-999.0,54,-99.99,,,-99.99,,2013-05-09 14:02:00,
2013-05-09 10:11:00,66.0,49.0,30.00,WSW,257,0.0,-999.0,54,-99.99,,,-99.99,,2013-05-09 14:11:00,
2013-05-09 10:22:00,67.0,49.0,30.01,WSW,257,1.0,-999.0,52,-99.99,,,-99.99,,2013-05-09 14:22:00,
2013-05-09 10:32:00,68.0,50.0,30.00,WSW,258,0.0,-999.0,52,-99.99,,,-99.99,,2013-05-09 14:32:00,
2013-05-09 10:42:00,68.0,50.0,30.00,WSW,258,0.0,-999.0,52,-99.99,,,-99.99,,2013-05-09 14:42:00,
2013-05-09 10:52:00,69.0,48.0,30.00,West,259,1.0,-999.0,48,-99.99,,,-99.99,,2013-05-09 14:52:00,
2013-05-09 11:01:00,69.0,48.0,30.00,West,259,0.0,-999.0,47,-99.99,,,-99.99,,2013-05-09 15:01:00,
2013-05-09 11:11:00,69.0,48.0,30.00,West,259,0.0,-999.0,47,-99.99,,,-99.99,,2013-05-09 15:11:00,
2013-05-09 11:22:00,70.0,48.0,30.00,WSW,254,0.0,-999.0,46,-99.99,,,-99.99,,2013-05-09 15:22:00,
2013-05-09 11:33:00,70.0,48.0,30.00,WSW,254,0.0,-999.0,46,-99.99,,,-99.99,,2013-05-09 15:33:00,
2013-05-09 11:43:00,72.0,49.0,29.99,WSW,254,1.0,-999.0,44,-99.99,,,-99.99,,2013-05-09 15:43:00,
2013-05-09 11:53:00,72.0,49.0,29.99,WSW,254,1.0,-999.0,44,-99.99,,,-99.99,,2013-05-09 15:53:00,
2013-05-09 12:03:00,73.0,47.0,30.00,West,259,1.0,-999.0,40,-99.99,,,-99.99,,2013-05-09 16:03:00,
2013-05-09 12:12:00,73.0,47.0,30.00,West,259,1.0,-999.0,40,-99.99,,,-99.99,,2013-05-09 16:12:00,
2013-05-09 12:23:00,73.0,47.0,30.00,West,259,1.0,-999.0,40,-99.99,,,-99.99,,2013-05-09 16:23:00,
2013-05-09 12:33:00,74.0,43.0,30.00,West,259,1.0,-999.0,33,-99.99,,,-99.99,,2013-05-09 16:33:00,
2013-05-09 12:42:00,74.0,39.0,29.99,West,259,1.0,-999.0,28,-99.99,,,-99.99,,2013-05-09 16:42:00,
2013-05-09 12:53:00,74.0,39.0,29.99,West,259,1.0,-999.0,28,-99.99,,,-99.99,,2013-05-09 16:53:00,
2013-05-09 13:02:00,75.0,45.0,29.99,West,259,1.0,-999.0,35,-99.99,,,-99.99,,2013-05-09 17:02:00,
2013-05-09 13:12:00,75.0,45.0,29.99,West,259,1.0,-999.0,35,-99.99,,,-99.99,,2013-05-09 17:12:00,
2013-05-09 13:21:00,75.0,45.0,29.99,West,259,1.0,-999.0,34,-99.99,,,-99.99,,2013-05-09 17:21:00,
2013-05-09 13:32:00,76.0,45.0,29.98,West,259,0.0,-999.0,33,-99.99,,,-99.99,,2013-05-09 17:32:00,
2013-05-09 13:42:00,76.0,45.0,29.98,West,259,0.0,-999.0,33,-99.99,,,-99.99,,2013-05-09 17:42:00,
2013-05-09 13:55:00,76.0,47.0,29.98,West,259,1.0,-999.0,36,-99.99,,,-99.99,,2013-05-09 17:55:00,
2013-05-09 14:01:00,76.0,45.0,29.98,WSW,245,0.0,-999.0,33,-99.99,,,-99.99,,2013-05-09 18:01:00,
2013-05-09 14:12:00,76.0,45.0,29.98,WSW,245,0.0,-999.0,33,-99.99,,,-99.99,,2013-05-09 18:12:00,
2013-05-09 14:22:00,77.0,45.0,29.98,WSW,238,1.0,-999.0,32,-99.99,,,-99.99,,2013-05-09 18:22:00,
2013-05-09 14:32:00,78.0,44.0,29.97,SW,217,0.0,-999.0,30,-99.99,,,-99.99,,2013-05-09 18:32:00,
2013-05-09 14:42:00,78.0,44.0,29.97,SW,217,0.0,-999.0,30,-99.99,,,-99.99,,2013-05-09 18:42:00,
2013-05-09 14:52:00,78.0,44.0,29.96,WNW,296,1.0,-999.0,30,-99.99,,,-99.99,,2013-05-09 18:52:00,
2013-05-09 15:01:00,79.0,43.0,29.96,West,261,0.0,-999.0,28,-99.99,,,-99.99,,2013-05-09 19:01:00,
2013-05-09 15:12:00,79.0,43.0,29.96,West,261,0.0,-999.0,28,-99.99,,,-99.99,,2013-05-09 19:12:00,
2013-05-09 15:21:00,80.0,47.0,29.95,West,273,1.0,-999.0,32,-99.99,,,-99.99,,2013-05-09 19:21:00,
2013-05-09 15:32:00,80.0,45.0,29.95,West,260,2.0,-999.0,29,-99.99,,,-99.99,,2013-05-09 19:32:00,
2013-05-09 15:42:00,80.0,45.0,29.95,West,260,2.0,-999.0,29,-99.99,,,-99.99,,2013-05-09 19:42:00,
2013-05-09 15:52:00,80.0,46.0,29.95,WSW,257,1.0,-999.0,30,-99.99,,,-99.99,,2013-05-09 19:52:00,
2013-05-09 16:01:00,80.0,46.0,29.94,WSW,248,0.0,-999.0,30,-99.99,,,-99.99,,2013-05-09 20:01:00,
2013-05-09 16:11:00,80.0,46.0,29.94,WSW,248,0.0,-999.0,30,-99.99,,,-99.99,,2013-05-09 20:11:00,
2013-05-09 16:22:00,80.0,49.0,29.93,WSW,252,1.0,-999.0,34,-99.99,,,-99.99,,2013-05-09 20:22:00,
2013-05-09 16:32:00,81.0,47.0,29.92,WNW,301,2.0,-999.0,30,-99.99,,,-99.99,,2013-05-09 20:32:00,
2013-05-09 16:42:00,80.0,45.0,29.92,SE,124,1.0,-999.0,29,-99.99,,,-99.99,,2013-05-09 20:42:00,
2013-05-09 16:52:00,80.0,45.0,29.92,SE,124,1.0,-999.0,29,-99.99,,,-99.99,,2013-05-09 20:52:00,
2013-05-09 17:02:00,79.0,46.0,29.92,West,263,2.0,-999.0,31,-99.99,,,-99.99,,2013-05-09 21:02:00,
2013-05-09 17:12:00,79.0,46.0,29.92,West,263,2.0,-999.0,31,-99.99,,,-99.99,,2013-05-09 21:12:00,
2013-05-09 17:22:00,79.0,47.0,29.91,West,270,2.0,-999.0,32,-99.99,,,-99.99,,2013-05-09 21:22:00,
2013-05-09 17:32:00,80.0,46.0,29.91,West,273,2.0,-999.0,30,-99.99,,,-99.99,,2013-05-09 21:32:00,
2013-05-09 17:43:00,79.0,44.0,29.90,West,267,1.0,-999.0,29,-99.99,,,-99.99,,2013-05-09 21:43:00,
2013-05-09 17:52:00,79.0,44.0,29.90,West,267,1.0,-999.0,29,-99.99,,,-99.99,,2013-05-09 21:52:00,
2013-05-09 18:03:00,78.0,47.0,29.90,WSW,246,0.0,-999.0,34,-99.99,,,-99.99,,2013-05-09 22:03:00,
2013-05-09 18:13:00,77.0,47.0,29.90,WSW,246,0.0,-999.0,35,-99.99,,,-99.99,,2013-05-09 22:13:00,
2013-05-09 18:23:00,77.0,47.0,29.90,WSW,246,0.0,-999.0,35,-99.99,,,-99.99,,2013-05-09 22:23:00,
2013-05-09 18:33:00,76.0,49.0,29.90,WSW,246,0.0,-999.0,38,-99.99,,,-99.99,,2013-05-09 22:33:00,
2013-05-09 18:42:00,76.0,51.0,29.90,West,264,0.0,-999.0,41,-99.99,,,-99.99,,2013-05-09 22:42:00,
2013-05-09 18:52:00,76.0,51.0,29.90,West,264,0.0,-999.0,41,-99.99,,,-99.99,,2013-05-09 22:52:00,
2013-05-09 19:02:00,74.0,50.0,29.90,West,264,0.0,-999.0,43,-99.99,,,-99.99,,2013-05-09 23:02:00,
2013-05-09 19:12:00,74.0,51.0,29.90,West,264,0.0,-999.0,45,-99.99,,,-99.99,,2013-05-09 23:12:00,
2013-05-09 19:22:00,74.0,51.0,29.90,West,264,0.0,-999.0,45,-99.99,,,-99.99,,2013-05-09 23:22:00,
2013-05-09 19:32:00,73.0,49.0,29.91,West,259,0.0,-999.0,43,-99.99,,,-99.99,,2013-05-09 23:32:00,
2013-05-09 19:42:00,74.0,49.0,29.91,SSE,168,0.0,-999.0,41,-99.99,,,-99.99,,2013-05-09 23:42:00,
2013-05-09 19:52:00,74.0,49.0,29.91,SSE,168,0.0,-999.0,41,-99.99,,,-99.99,,2013-05-09 23:52:00,
2013-05-09 20:01:00,71.0,53.0,29.93,WSW,238,5.0,-999.0,53,-99.99,,,-99.99,,2013-05-10 00:01:00,
2013-05-09 20:11:00,67.0,53.0,29.93,WSW,252,6.0,-999.0,61,-99.99,,,-99.99,,2013-05-10 00:11:00,
2013-05-09 20:22:00,67.0,53.0,29.93,WSW,252,6.0,-999.0,61,-99.99,,,-99.99,,2013-05-10 00:22:00,
2013-05-09 20:32:00,66.0,53.0,29.94,WSW,246,5.0,-999.0,64,-99.99,,,-99.99,,2013-05-10 00:32:00,
2013-05-09 20:42:00,63.0,53.0,29.95,WSW,246,4.0,-999.0,69,-99.99,,,-99.99,,2013-05-10 00:42:00,
2013-05-09 20:52:00,63.0,53.0,29.95,WSW,246,4.0,-999.0,69,-99.99,,,-99.99,,2013-05-10 00:52:00,
2013-05-09 21:01:00,63.0,53.0,29.95,WSW,246,4.0,-999.0,69,-99.99,,,-99.99,,2013-05-10 01:01:00,
2013-05-09 21:11:00,61.0,52.0,29.95,WNW,282,1.0,-999.0,72,-99.99,,,-99.99,,2013-05-10 01:11:00,
2013-05-09 21:21:00,61.0,52.0,29.95,WNW,282,1.0,-999.0,72,-99.99,,,-99.99,,2013-05-10 01:21:00,
2013-05-09 21:32:00,60.0,54.0,29.93,NE,34,3.0,-999.0,80,-99.99,,,-99.99,,2013-05-10 01:32:00,
2013-05-09 21:42:00,60.0,54.0,29.93,NE,34,3.0,-999.0,80,-99.99,,,-99.99,,2013-05-10 01:42:00,
2013-05-09 21:52:00,60.0,54.0,29.93,NE,34,3.0,-999.0,80,-99.99,,,-99.99,,2013-05-10 01:52:00,
2013-05-09 22:02:00,60.0,55.0,29.94,NNE,33,0.0,-999.0,83,-99.99,,,-99.99,,2013-05-10 02:02:00,
2013-05-09 22:11:00,60.0,55.0,29.94,NNE,33,0.0,-999.0,83,-99.99,,,-99.99,,2013-05-10 02:11:00,
2013-05-09 22:21:00,60.0,55.0,29.94,NNE,33,0.0,-999.0,83,-99.99,,,-99.99,,2013-05-10 02:21:00,
2013-05-09 22:32:00,59.0,55.0,29.94,NNE,33,0.0,-999.0,86,-99.99,,,-99.99,,2013-05-10 02:32:00,
2013-05-09 22:42:00,59.0,55.0,29.94,NNE,33,0.0,-999.0,86,-99.99,,,-99.99,,2013-05-10 02:42:00,
2013-05-09 22:52:00,59.0,55.0,29.94,NNE,33,0.0,-999.0,86,-99.99,,,-99.99,,2013-05-10 02:52:00,
2013-05-09 23:01:00,59.0,54.0,29.94,NE,34,0.0,-999.0,85,-99.99,,,-99.99,,2013-05-10 03:01:00,
2013-05-09 23:11:00,59.0,54.0,29.94,NE,34,0.0,-999.0,85,-99.99,,,-99.99,,2013-05-10 03:11:00,
2013-05-09 23:22:00,59.0,55.0,29.93,NNE,33,0.0,-999.0,86,-99.99,,,-99.99,,2013-05-10 03:22:00,
2013-05-09 23:33:00,59.0,54.0,29.92,NNE,15,0.0,-999.0,83,-99.99,,,-99.99,,2013-05-10 03:33:00,
2013-05-09 23:43:00,59.0,54.0,29.92,NNE,15,0.0,-999.0,83,-99.99,,,-99.99,,2013-05-10 03:43:00,
2013-05-09 23:53:00,59.0,54.0,29.92,NNE,15,0.0,-999.0,83,-99.99,,,-99.99,,2013-05-10 03:53:00,